[[{"header":{"parameterUnit":"m.s-1","parameterCategory":1,"la1":30.2991,"la2":30.254,"lo1":-89.0895,"lo2":-89.0444,"dy":0.0017,"dx":0.0017,"nx":28,"ny":28,"refTime":"2024-08-30T03:00:00:Z","depth":0,"parameterNumber":2,"parameterNumberName":"U-component_of_WINDS"},"data":[0,0,0,0,0,0,0,0,0,0,0,0,0,0,0,0,0,0,0,0,0,0,0,0,0,0,0,0,0,0,0,0,0,0,0,0,0,0,0,0,0,0,0,0,0,0,0,0,0,0,0,0,0,0,0,0,0,0,-2.9895,-2.9894,0,-2.9802,-2.9801,-2.98,-2.9636,-2.9633,-2.963,-2.9627,-2.9535,-2.9536,-2.9536,0,0,0,0,0,0,0,0,0,0,0,0,0,-2.9933,-2.9933,-2.9895,-2.9894,-2.9892,-2.9802,-2.9801,-2.98,-2.9636,-2.9633,-2.9629,-2.9625,-2.9535,-2.9535,-2.9536,0,0,0,0,0,0,0,0,0,0,0,0,0,-2.9886,-2.9933,-2.9895,-2.98,-2.9791,-2.9802,-2.9801,-2.9799,-2.9637,-2.9633,-2.9628,-2.9624,-2.9535,-2.9535,-2.9536,-2.9634,0,0,-2.9538,-2.9538,0,0,0,0,0,0,0,0,-2.9889,-2.9885,-2.9815,-2.9807,-2.9796,-2.9726,-2.978,-2.9744,-2.9638,-2.9696,-2.9627,-2.9621,-2.9602,-2.9597,-2.959,-2.963,-2.9626,-2.9538,-2.9539,-2.9539,-2.9539,0,0,0,0,0,0,0,-2.9893,-2.9888,-2.9858,-2.9814,-2.9803,-2.9763,-2.9751,-2.9773,-2.9677,-2.969,-2.9678,-2.9669,-2.9596,-2.959,-2.9587,-2.9624,-2.9538,-2.9539,-2.9539,-2.954,-2.9737,-2.9741,0,0,0,0,0,0,-2.9909,-2.9892,-2.9861,-2.9855,-2.9832,-2.9766,-2.9753,-2.9753,-2.9676,-2.9659,-2.9673,-2.9662,-2.9591,-2.9586,-2.9583,-2.969,-2.9539,-2.954,-2.954,-2.9732,-2.9738,-2.9743,0,0,0,0,0,0,-2.9911,-2.9908,-2.9865,-2.987,-2.9862,-2.977,-2.9772,-2.9754,-2.9747,-2.9663,-2.9645,-2.9684,-2.9587,-2.9582,-2.9622,-2.9685,-2.954,-2.9541,-2.9726,-2.9734,-2.974,-2.9907,0,0,0,0,0,0,-2.9913,-2.991,-2.9945,-2.9872,-2.9862,-2.9905,-2.9776,-2.9755,-2.9748,-2.9732,-2.9668,-2.9653,-2.9583,-2.9622,-2.9622,-2.9683,-2.9541,-2.972,-2.973,-2.9738,-2.9896,-2.9919,-2.994,0,0,0,0,0,-2.9914,-2.9997,-2.9948,-2.9945,-2.9904,-2.9909,-2.9903,-2.9819,-2.9754,-2.9789,-2.9735,-2.9655,-2.9678,-2.9627,-2.9627,-2.9689,-2.9716,-2.9727,-2.9738,-2.9886,-2.9915,-2.9939,0,0,0,0,0,0,-3.0081,-2.9986,-2.993,-2.9991,-2.9959,-2.9881,-2.9923,-2.9853,-2.9839,-2.9825,-2.9723,-2.971,-2.9763,-2.973,-2.9674,-2.9778,-2.9684,-2.9696,-2.9797,-2.9824,-2.9846,-2.9852,-2.9542,0,0,0,0,0,-3.0125,-3.0136,-3.0052,-3.0114,-3.0101,-3.0015,-3.0014,-2.9952,-2.9915,-2.9901,-2.985,-2.9818,-2.9817,-2.9819,-2.9814,-2.9891,-2.9873,-2.9933,-2.9955,-2.9974,-2.9984,-3.002,-3.0045,-2.9779,-2.9779,-2.9778,0,0,-3.0216,-3.0165,-3.0178,-3.0146,-3.0114,-3.0128,-3.0005,-3.0025,-3.0034,-2.9904,-2.9937,-2.9899,-2.9857,-2.9915,-2.9938,-2.9889,-3.0054,-2.9987,-3.0003,-3.0003,-3.0034,-3.0059,-3.0081,-2.9786,-2.9785,-2.9784,0,0,-3.0388,-3.0351,-3.0397,-3.0368,-3.032,-3.0262,-3.0274,-3.0206,-3.0175,-3.0206,-3.0109,-3.0119,-3.0121,-3.0094,-3.008,-3.0242,-3.0167,-3.0243,-3.0357,-3.0394,-3.0414,-3.0432,-3.0488,-3.0509,-3.0254,-3.0255,-3.0255,0,-3.0507,-3.0522,-3.0431,-3.0456,-3.0445,-3.0327,-3.0374,-3.0349,-3.0304,-3.0299,-3.0244,-3.0243,-3.0206,-3.0255,-3.0294,-3.0288,-3.0297,-3.0249,-3.0419,-3.0436,-3.0451,-3.0503,-3.0525,-3.0264,-3.0263,-3.0262,-3.0261,0,-3.067,-3.0682,-3.0726,-3.0682,-3.0676,-3.0713,-3.0627,-3.0632,-3.0571,-3.052,-3.0553,-3.0505,-3.0487,-3.0494,-3.0436,-3.0535,-3.0506,-3.0437,-3.034,-3.0488,-3.0534,-3.0554,-3.0278,-3.0274,-3.0271,-3.0269,0,0,-3.0943,-3.0848,-3.0865,-3.0843,-3.0782,-3.079,-3.0822,-3.0803,-3.0808,-3.0781,-3.0803,-3.0807,-3.0743,-3.0728,-3.0665,-3.0698,-3.0826,-3.0624,-3.0621,-3.0661,-3.093,-3.098,-3.1005,-3.0777,-3.078,-3.0783,-3.0932,0,-3.11,-3.1145,-3.1064,-3.1129,-3.1139,-3.1028,-3.1054,-3.102,-3.0973,-3.0975,-3.0923,-3.0926,-3.0842,-3.0831,-3.0859,-3.0805,-3.0878,-3.0793,-3.0796,-3.0797,-3.0808,-3.103,-3.1084,-3.1227,-3.095,-3.0954,-3.0956,0,-3.1288,-3.1268,-3.1334,-3.1268,-3.1269,-3.1294,-3.127,-3.1273,-3.1232,-3.1195,-3.1179,-3.1104,-3.113,-3.1039,-3.1072,-3.1016,-3.1012,-3.0986,-3.099,-3.0985,-3.0884,-3.1029,-3.1271,-3.1292,-3.0984,-3.0982,-3.098,0,-3.1478,-3.1468,-3.1506,-3.1491,-3.1415,-3.1435,-3.1405,-3.1358,-3.1352,-3.1332,-3.1326,-3.131,-3.1301,-3.129,-3.1213,-3.1154,-3.1255,-3.1158,-3.1225,-3.1227,-3.125,-3.1249,-3.1492,-3.1252,-3.1251,-3.1251,-3.1251,0,-3.166,-3.1705,-3.1589,-3.1613,-3.1659,-3.1566,-3.1614,-3.1572,-3.1532,-3.1545,-3.145,-3.1464,-3.1363,-3.1366,-3.1307,-3.1342,-3.1339,-3.131,-3.1293,-3.1317,-3.1321,-3.1312,-3.1299,-3.1257,-3.1255,-3.1254,-3.1253,0,-3.1879,-3.1804,-3.1837,-3.1762,-3.1745,-3.1782,-3.1718,-3.1736,-3.1683,-3.17,-3.1699,-3.1616,-3.1615,-3.1537,-3.1521,-3.1481,-3.1541,-3.1507,-3.1554,-3.1543,-3.1613,-3.1607,-3.1857,-3.1885,-3.163,-3.1633,-3.1635,0,-3.1999,-3.203,-3.1959,-3.196,-3.1934,-3.1937,-3.193,-3.184,-3.1836,-3.1791,-3.1815,-3.1806,-3.1793,-3.1797,-3.1735,-3.1722,-3.1685,-3.1774,-3.1683,-3.1705,-3.1684,-3.1682,-3.1684,-3.1793,-3.1796,-3.1799,-3.1801,0,-3.222,-3.2181,-3.2174,-3.2154,-3.2147,-3.2127,-3.2101,-3.2108,-3.201,-3.2011,-3.2007,-3.1998,-3.198,-3.1972,-3.1947,-3.1915,-3.1842,-3.1831,-3.1845,-3.1869,-3.1894,-3.1879,-3.1605,-3.1825,-3.1822,-3.1821,-3.1819,-3.1818,-3.2391,-3.2413,-3.2365,-3.236,-3.2331,-3.2309,-3.2322,-3.227,-3.2265,-3.2243,-3.2191,-3.2196,-3.2153,-3.2112,-3.2087,-3.2089,-3.2045,-3.2066,-3.2071,-3.2077,-3.209,-3.1896,-3.2085,-3.2084,-3.2083,-3.2083,-3.2082,0,-3.2604,-3.2568,-3.2565,-3.2531,-3.2527,-3.2458,-3.2425,-3.2427,-3.2432,-3.2398,-3.2388,-3.2384,-3.2375,-3.2313,-3.2297,-3.2311,-3.2277,-3.231,-3.2307,-3.23,-3.2132,-3.212,-3.2338,-3.2338,-3.2338,-3.2338,-3.2338,-3.2338,-3.2715,-3.2747,-3.2703,-3.272,-3.2684,-3.2687,-3.2675,-3.2654,-3.2625,-3.2625,-3.2617,-3.2577,-3.2531,-3.2511,-3.25,-3.2481,-3.2479,-3.2523,-3.2494,-3.2337,-3.2313,-3.2289,-3.2277,-3.2524,-3.2525,-3.2661,-3.2663,-3.2664]},{"header":{"parameterUnit":"m.s-1","parameterCategory":1,"la1":30.2991,"la2":30.254,"lo1":-89.0895,"lo2":-89.0444,"dy":0.0017,"dx":0.0017,"nx":28,"ny":28,"refTime":"2024-08-30T03:00:00:Z","depth":0,"parameterNumber":3,"parameterNumberName":"V-component_of_WINDS"},"data":[0,0,0,0,0,0,0,0,0,0,0,0,0,0,0,0,0,0,0,0,0,0,0,0,0,0,0,0,0,0,0,0,0,0,0,0,0,0,0,0,0,0,0,0,0,0,0,0,0,0,0,0,0,0,0,0,0,0,-0.2902,-0.2903,0,-0.2941,-0.2941,-0.2942,-0.3024,-0.3026,-0.3027,-0.3029,-0.307,-0.3069,-0.3069,0,0,0,0,0,0,0,0,0,0,0,0,0,-0.2899,-0.2899,-0.2902,-0.2903,-0.2903,-0.2941,-0.2941,-0.2942,-0.3024,-0.3026,-0.3028,-0.303,-0.307,-0.3069,-0.3069,0,0,0,0,0,0,0,0,0,0,0,0,0,-0.2915,-0.2899,-0.2902,-0.2949,-0.2953,-0.2941,-0.2941,-0.2942,-0.3023,-0.3026,-0.3028,-0.303,-0.307,-0.3069,-0.3069,-0.3015,0,0,-0.3067,-0.3066,0,0,0,0,0,0,0,0,-0.2914,-0.2916,-0.2941,-0.2945,-0.295,-0.298,-0.2955,-0.2967,-0.3023,-0.2997,-0.3029,-0.3032,-0.3038,-0.304,-0.3042,-0.3017,-0.3019,-0.3067,-0.3066,-0.3066,-0.3066,0,0,0,0,0,0,0,-0.2913,-0.2914,-0.2918,-0.2941,-0.2947,-0.2967,-0.2972,-0.2958,-0.3003,-0.2999,-0.3005,-0.3008,-0.3041,-0.3042,-0.3044,-0.3019,-0.3067,-0.3066,-0.3066,-0.3065,-0.295,-0.2947,0,0,0,0,0,0,-0.2905,-0.2913,-0.2916,-0.2919,-0.2938,-0.2965,-0.2971,-0.2968,-0.3003,-0.3011,-0.3006,-0.3012,-0.3042,-0.3044,-0.3045,-0.2983,-0.3066,-0.3065,-0.3065,-0.2952,-0.2949,-0.2946,0,0,0,0,0,0,-0.2905,-0.2905,-0.2915,-0.2917,-0.292,-0.2963,-0.2959,-0.2968,-0.2969,-0.3009,-0.3017,-0.2999,-0.3044,-0.3046,-0.3021,-0.2986,-0.3065,-0.3064,-0.2955,-0.2951,-0.2948,-0.2858,0,0,0,0,0,0,-0.2904,-0.2904,-0.2884,-0.2916,-0.292,-0.289,-0.2957,-0.2967,-0.2968,-0.2975,-0.3005,-0.3012,-0.3046,-0.3022,-0.3021,-0.2986,-0.3064,-0.2959,-0.2954,-0.2949,-0.2865,-0.2852,-0.2841,0,0,0,0,0,-0.2904,-0.2859,-0.2883,-0.2883,-0.2896,-0.2888,-0.289,-0.293,-0.2964,-0.2944,-0.297,-0.3011,-0.299,-0.3019,-0.3018,-0.2983,-0.2961,-0.2955,-0.2949,-0.287,-0.2854,-0.2841,0,0,0,0,0,0,-0.2823,-0.2864,-0.2891,-0.2855,-0.2867,-0.2902,-0.2878,-0.2913,-0.2916,-0.2923,-0.2974,-0.2979,-0.2947,-0.2963,-0.2994,-0.2931,-0.2982,-0.2975,-0.2922,-0.2907,-0.2896,-0.2892,-0.3063,0,0,0,0,0,-0.28,-0.279,-0.2827,-0.2791,-0.2796,-0.2835,-0.2833,-0.2863,-0.2878,-0.2884,-0.2908,-0.292,-0.2917,-0.2913,-0.2912,-0.2868,-0.2874,-0.2843,-0.2831,-0.2821,-0.2814,-0.279,-0.2776,-0.2926,-0.2926,-0.2926,0,0,-0.2754,-0.2775,-0.2766,-0.2775,-0.2788,-0.2776,-0.2839,-0.2825,-0.2816,-0.2882,-0.2859,-0.2876,-0.2894,-0.2858,-0.2844,-0.2871,-0.2774,-0.2813,-0.2805,-0.2804,-0.2782,-0.2768,-0.2755,-0.2922,-0.2923,-0.2924,0,0,-0.2664,-0.2679,-0.265,-0.2661,-0.268,-0.2706,-0.2699,-0.2728,-0.2741,-0.2719,-0.2768,-0.2758,-0.2751,-0.2761,-0.2765,-0.2675,-0.2713,-0.2674,-0.2611,-0.2587,-0.2575,-0.2564,-0.2531,-0.2518,-0.2667,-0.2667,-0.2667,0,-0.2604,-0.2588,-0.2631,-0.2612,-0.2614,-0.2672,-0.2642,-0.2651,-0.2668,-0.2668,-0.2697,-0.2687,-0.2704,-0.267,-0.2648,-0.265,-0.2642,-0.2671,-0.2573,-0.2563,-0.2554,-0.2522,-0.251,-0.2662,-0.2663,-0.2663,-0.2664,0,-0.2513,-0.2501,-0.2475,-0.2488,-0.2487,-0.2463,-0.2502,-0.2496,-0.2525,-0.2548,-0.2523,-0.2545,-0.2547,-0.2542,-0.2571,-0.2512,-0.2527,-0.2564,-0.2616,-0.2534,-0.2505,-0.2493,-0.2655,-0.2657,-0.2658,-0.266,0,0,-0.2374,-0.2409,-0.2399,-0.2405,-0.2428,-0.2419,-0.2397,-0.2399,-0.2391,-0.2401,-0.2383,-0.2374,-0.2407,-0.2412,-0.2443,-0.2421,-0.2346,-0.246,-0.2461,-0.2437,-0.2279,-0.225,-0.2236,-0.2371,-0.2369,-0.2367,-0.2277,0,-0.2288,-0.2251,-0.2288,-0.2244,-0.2232,-0.2286,-0.2266,-0.2278,-0.2298,-0.2291,-0.2314,-0.2306,-0.2352,-0.2354,-0.2336,-0.2359,-0.2315,-0.2366,-0.2354,-0.2353,-0.2346,-0.2221,-0.2191,-0.2105,-0.2266,-0.2264,-0.2263,0,-0.2183,-0.2185,-0.2139,-0.2163,-0.216,-0.2141,-0.2145,-0.2137,-0.2151,-0.2167,-0.2171,-0.2207,-0.2186,-0.2237,-0.2208,-0.2242,-0.2239,-0.2249,-0.2247,-0.2247,-0.2302,-0.2216,-0.2079,-0.2065,-0.2246,-0.2247,-0.2249,0,-0.2084,-0.2076,-0.2047,-0.205,-0.2078,-0.2063,-0.2074,-0.209,-0.2088,-0.2091,-0.209,-0.2091,-0.2091,-0.2091,-0.2126,-0.216,-0.2091,-0.2146,-0.2104,-0.2102,-0.2086,-0.2087,-0.1945,-0.2086,-0.2086,-0.2087,-0.2087,0,-0.1983,-0.1953,-0.2002,-0.1984,-0.195,-0.1993,-0.1959,-0.1975,-0.1989,-0.1974,-0.2022,-0.2007,-0.2055,-0.2045,-0.2073,-0.2043,-0.2044,-0.2055,-0.2063,-0.205,-0.2049,-0.2049,-0.2055,-0.2083,-0.2084,-0.2085,-0.2085,0,-0.1867,-0.1899,-0.187,-0.1897,-0.1904,-0.1877,-0.1901,-0.1885,-0.1908,-0.1889,-0.1887,-0.1922,-0.1913,-0.1948,-0.1946,-0.1964,-0.1919,-0.1938,-0.1914,-0.1919,-0.1874,-0.1877,-0.1727,-0.1709,-0.1862,-0.1861,-0.186,0,-0.18,-0.1778,-0.1802,-0.1795,-0.1803,-0.1792,-0.1789,-0.1829,-0.1825,-0.1837,-0.1819,-0.1814,-0.1811,-0.1794,-0.1819,-0.1817,-0.1834,-0.1782,-0.1834,-0.1822,-0.1832,-0.1832,-0.1829,-0.1771,-0.1769,-0.1767,-0.1766,0,-0.1678,-0.1694,-0.1689,-0.1687,-0.1682,-0.1684,-0.1688,-0.168,-0.1723,-0.1716,-0.1706,-0.1704,-0.1699,-0.1693,-0.1695,-0.1706,-0.1742,-0.1749,-0.1739,-0.1726,-0.1712,-0.1717,-0.1883,-0.1752,-0.1754,-0.1755,-0.1755,-0.1756,-0.1584,-0.1565,-0.1578,-0.1569,-0.1577,-0.1579,-0.1565,-0.1584,-0.1577,-0.1576,-0.16,-0.1585,-0.1597,-0.1604,-0.1611,-0.16,-0.1624,-0.161,-0.1606,-0.1601,-0.1593,-0.1714,-0.16,-0.1601,-0.1601,-0.1602,-0.1602,0,-0.1463,-0.1473,-0.1465,-0.1468,-0.1461,-0.1495,-0.1501,-0.1492,-0.1478,-0.1486,-0.1482,-0.147,-0.1463,-0.1487,-0.1483,-0.1469,-0.1485,-0.1466,-0.1467,-0.1469,-0.1572,-0.158,-0.1453,-0.1453,-0.1453,-0.1453,-0.1453,-0.1453,-0.1399,-0.1368,-0.1385,-0.1358,-0.1369,-0.1354,-0.1354,-0.1356,-0.1362,-0.1346,-0.134,-0.1355,-0.1369,-0.1366,-0.1361,-0.1368,-0.1364,-0.1339,-0.1351,-0.1447,-0.1462,-0.1476,-0.1484,-0.1338,-0.1337,-0.1249,-0.1248,-0.1247]}]]